Location: Bremen
(53.0793°N, 8.8017°E)
Time: 21:18:59
(UTC+01:00)

Tiros 1 - Pass Details

Date: 08 December 2021
Orbit: 629 x 664 km, 48.4° (Epoch: 18 January)

Event Time Altitude Azimuth Distance (km) Brightness Sun altitude
Rises 19:48:20 0° 256° (WSW) 2,924 11.5 -31.7°
Reaches altitude 10° 19:50:42 10° 251° (WSW) 2,021 10.4 -32.0°
Enters shadow 19:52:50 25° 239° (WSW) 1,278 9.1 -32.3°
